Location: Austin
(30.3000°N, 97.7500°W)
Time: 05:41:41
(UTC-05:00)

COSMOS 2406 - Pass Details

Date: 16 June 2025
Orbit: 844 x 860 km, 71.0° (Epoch: 07 July)

Event Time Altitude Azimuth Distance (km) Brightness Sun altitude
Rises 05:00:30 0° 333° (NNW) 3,436 6.6 -16.6°
Reaches altitude 10° 05:03:02 10° 328° (NNW) 2,497 5.7 -16.2°
Maximum altitude 05:08:32 49° 255° (WSW) 1,099 3.4 -15.3°
Drops below altitude 10° 05:14:00 10° 182° (S) 2,482 5.3 -14.4°
Enters shadow 05:16:29 - 176° (S) 3,399 6.0 -14.0°
